Address 0x2357f665d833c517238eda7f6ef4a1f323f677f0

 
Txn Hash
Block
From
To
Value [Txn Fee]
0x5de568e77a32980dcd501c82461db8673310b253a2a86407af6463575aa28e3b67436562021-04-20 23:23:0213 mins ago0x2357f665d833c517238eda7f6ef4a1f323f677f0OUT PancakeSwap: Router0 BNB0.001186535
0xf12020e2bdd000fb6036c6269fb5cb0fa9054d6f050ce563e1b978b53b030b8467436172021-04-20 23:21:0115 mins ago0x2357f665d833c517238eda7f6ef4a1f323f677f0OUT 0x7c63f96feafacd84e75a594c00fac3693386fbf00 BNB0.00022274
0x40ff029483d593cdb502ea2d70408f2ba22fc74a43fbd3b7dea5f3e0aeb3ab3967428302021-04-20 22:41:3854 mins ago0x2357f665d833c517238eda7f6ef4a1f323f677f0OUT PancakeSwap: Router0.093565265 BNB0.000915865
0x04746352d64a6b270998c41fec18269f4b076760560f5c2ab9fa592a36bf403c67427262021-04-20 22:36:2659 mins ago0x2357f665d833c517238eda7f6ef4a1f323f677f0OUT PancakeSwap: Router0.1 BNB0.000863265
0x201dcee62aba1000e218f80a0365fac6fda0e45c616018320aac388f14f55c4267425932021-04-20 22:29:471 hr 6 mins agoBinance: Hot Wallet IN 0x2357f665d833c517238eda7f6ef4a1f323f677f00.195353 BNB0.000126
0x623bf29453d61f1549186da274e5baac660b10e1df8289d65824678f85da2ee067392072021-04-20 19:38:523 hrs 57 mins ago0x2357f665d833c517238eda7f6ef4a1f323f677f0OUT PancakeSwap: Router0.179055539969194 BNB0.00092447
0x9427047250bab8faf50e39364c5886dea8ab05d776f5a54aff29eb621aee2e7067391102021-04-20 19:34:014 hrs 2 mins ago0x2357f665d833c517238eda7f6ef4a1f323f677f0OUT 0x1a1ec25dc08e98e5e93f1104b5e5cdd298707d310 BNB0.00083598
0x129eba9de107de1faf433e97389894ae0ba8c585723c90abe1f638a9893565c067391102021-04-20 19:34:014 hrs 2 mins ago0x2357f665d833c517238eda7f6ef4a1f323f677f0OUT Binance: BUSD Stablecoin0 BNB0.00022203
0x0c959b4acab9ee0d92a9aa9582f40b0611d75a24da038f4031dc17ada6c325d967385792021-04-20 19:07:274 hrs 28 mins ago0x2357f665d833c517238eda7f6ef4a1f323f677f0OUT Binance: BUSD Stablecoin0 BNB0.000180695
0xce60cc7849cf005cc5f4f689c345c1b1de2f814e6011e85afb27f1377e4bdd5d67384492021-04-20 19:00:574 hrs 35 mins ago0x2357f665d833c517238eda7f6ef4a1f323f677f0OUT 0x1a1ec25dc08e98e5e93f1104b5e5cdd298707d310 BNB0.002424715
0x3c2a411152f4e66157ffcdd0b8d1474d1d22049d5c892497885be0feb5ed81ae67384492021-04-20 19:00:574 hrs 35 mins ago0x2357f665d833c517238eda7f6ef4a1f323f677f0OUT Blind Boxes: BLES Token0 BNB0.00022203
0x4ac912d690ccb29c330bf9b6d30d229eb02655bfa2860ec1e4e1ddb7bab1d04f64269072021-04-09 22:46:0311 days 50 mins ago0x2357f665d833c517238eda7f6ef4a1f323f677f0OUT 0xd17eaf17f4120977ff61f5529b2df5af662522380 BNB0.000273465
0x9a2a63a1eeff363434830e10b0c6317e01299000d5c35659025d3189ea5b12a664269012021-04-09 22:45:4511 days 50 mins ago0x2357f665d833c517238eda7f6ef4a1f323f677f0OUT 0xd17eaf17f4120977ff61f5529b2df5af662522380 BNB0.000273465
0xcb6662a7efca13d2719fbbe2569d2e08c476f6ce6e182790969ce0e50fcd9e1a64268922021-04-09 22:45:1811 days 50 mins ago0x2357f665d833c517238eda7f6ef4a1f323f677f0OUT 0xd17eaf17f4120977ff61f5529b2df5af662522380 BNB0.000273465
0x035a9a3db5d55993f78a22a2929c2f5626ff32ff23717533fcf0a138dd74812c64267952021-04-09 22:40:2711 days 55 mins ago0x2357f665d833c517238eda7f6ef4a1f323f677f0OUT 0xd17eaf17f4120977ff61f5529b2df5af662522380 BNB0.000273465
0xb267b11894d854b4cb5f6e150061269e60e8388fbea5fa583eef6014a9d93ac964267862021-04-09 22:40:0011 days 56 mins ago0x2357f665d833c517238eda7f6ef4a1f323f677f0OUT 0xd17eaf17f4120977ff61f5529b2df5af662522380 BNB0.000273465
0xfa27f04639542cdea1136bf9e7ba21c3ab6ef6be9ae883b9cd72fd56ca0628b164267722021-04-09 22:39:1811 days 56 mins ago0x2357f665d833c517238eda7f6ef4a1f323f677f0OUT 0xd17eaf17f4120977ff61f5529b2df5af662522380 BNB0.000273465
0xe5b2c1b26dae7e948defad8d2abe0b153a0a72e24ab50d103c8417c4e49df2ef64267622021-04-09 22:38:4811 days 57 mins ago0x2357f665d833c517238eda7f6ef4a1f323f677f0OUT 0xd17eaf17f4120977ff61f5529b2df5af662522380 BNB0.000273465
0xf5c1c2b881d93c99cf7c4ff94e8814171a590b65d8582256ce33507fbb66c14664267542021-04-09 22:38:2411 days 57 mins ago0x2357f665d833c517238eda7f6ef4a1f323f677f0OUT 0xd17eaf17f4120977ff61f5529b2df5af662522380 BNB0.000273465
0x506d514eb395edf51c04a23d25685c86ede69e5c2372c45e13838cd0169449ab64267432021-04-09 22:37:5111 days 58 mins ago0x2357f665d833c517238eda7f6ef4a1f323f677f0OUT 0xd17eaf17f4120977ff61f5529b2df5af662522380 BNB0.000273465
0xd822be3806691bade2291ac203c8e0bded4d15440ad6ebdff4d811da544cc07364267102021-04-09 22:36:1211 days 59 mins ago0x2357f665d833c517238eda7f6ef4a1f323f677f0OUT 0xd17eaf17f4120977ff61f5529b2df5af662522380 BNB0.000273465
0xf41a400861d73b8b581d1e168477043876168b126aec2eaf8e57bb3779e01b8b64266882021-04-09 22:35:0611 days 1 hr ago0x2357f665d833c517238eda7f6ef4a1f323f677f0OUT 0xd17eaf17f4120977ff61f5529b2df5af662522380 BNB0.000273465
0x0597b6c61375bd5b6a396f8601cdfc3497929e38ab0fa3ca5c966471d52da98a64266712021-04-09 22:34:1511 days 1 hr ago0x2357f665d833c517238eda7f6ef4a1f323f677f0OUT 0xd17eaf17f4120977ff61f5529b2df5af662522380 BNB0.000273465
0x6089a23374ddb93952f9c766be7fd97c4e9a2dbc260457349cbecf82050daf0c64266542021-04-09 22:33:2411 days 1 hr ago0x2357f665d833c517238eda7f6ef4a1f323f677f0OUT 0xd17eaf17f4120977ff61f5529b2df5af662522380 BNB0.000273465
0xbbf1ed536191788460482d83f2b026fa2917bb602beb624967af33761aa3a0d264266322021-04-09 22:32:1811 days 1 hr ago0x2357f665d833c517238eda7f6ef4a1f323f677f0OUT 0xd17eaf17f4120977ff61f5529b2df5af662522380 BNB0.000348465
[ Download CSV Export 
Latest 1 internal transaction
Parent Txn Hash Block From To Value
0x9427047250bab8faf50e39364c5886dea8ab05d776f5a54aff29eb621aee2e7067391102021-04-20 19:34:014 hrs 2 mins ago 0xc590175e458b83680867afd273527ff58f74c02b0x2357f665d833c517238eda7f6ef4a1f323f677f00.170461949969194912 BNB
[ Download CSV Export 
Loading

Contract Name:
0 BNB

Compiler Version
0

Optimization Enabled:
0 BNB

Other Settings:
-NA-
Block Transaction Gas Used Reward
Age Block Fee Address BC Fee Address Voting Power Jailed Incoming
Block Uncle Number Difficulty Gas Used Reward
Loading
Loading
Make sure to use the "Vote Down" button for any spammy posts, and the "Vote Up" for interesting conversations.